Tracking 19800 objects as of 24-Jul-2019
HD Live streaming from Space Station
objects crossing your sky now

SL-8 R/B

Track SL-8 R/B now!
10-day predictions


NORAD ID: 20557
Int'l Code: 1990-029J
Perigee: 1,465.0 km
Apogee: 1,706.8 km
Inclination: 74.0 °
Period: 117.7 minutes
Semi major axis: 7956 km
RCS: 6.465 m2 (large)
Launch date: April 6, 1990
Source: Commonwealth of Independent States (former USSR) (CIS)
Launch site: PLESETSK MISSILE AND SPACE COMPLEX (PKMTR)

Note: This is a ROCKET BODY
aabbcc
Your satellite tracking list
Your tracking list is empty




NASA's NSSDC Master Catalog

Two Line Element Set (TLE):
1 20557U 90029J   19204.87531949 -.00000065 +00000-0 -45033-3 0  9992
2 20557 073.9852 015.0552 0151925 152.5300 351.5240 12.23171352307975
Source of the keplerian elements: AFSPC